Location: Mascot Post Office (historical)
(40.2645°N, 99.5462°W)
Time: 02:41:43
(UTC+00:00)

MetOp-B - Pass Details

Date: 14 July 2020
Orbit: 819 x 821 km, 98.7° (Epoch: 14 August)

Event Time Altitude Azimuth Distance (km) Brightness Sun altitude
Exits shadow 03:48:21 17° 177° (S) 1,987 5.7 -15.8°
Maximum altitude 03:52:33 69° 258° (WSW) 881 4.4 -16.4°
Drops below altitude 10° 03:57:55 10° 341° (NNW) 2,426 7.7 -17.0°
Sets 04:00:17 0° 344° (NNW) 3,363 8.6 -17.3°
